CCA117 ZBTJ-RKSI

Flight info

Callsign CCA117
Flight time 1h 13m
Altitude 29100
Route K0778S0890 MUGLO1T MUGLO W34 VAPGU W100 ORAVA W201 UNSEK A326 DONVO G597 AGAVO/N0419F290 Y644 REBIT REBIT2A
Aircraft A20N/M-SDE2E3FGHIRWXY/LB1

Departure

Time 2026-04-17 08:02
Airport Tianjin Binhai International Airport (ZBTJ)

Arrival

Time 2026-04-17 09:15
Airport Incheon International Airport (RKSI)
Time Latitude Longitude Altitude Speed Heading
2026-04-17 07:36 39.12514 117.36059 18 ft 0 kts 334°
2026-04-17 07:47 39.12500 117.36067 18 ft 3 kts 334°
2026-04-17 07:47 39.12476 117.36082 18 ft 3 kts 334°
2026-04-17 07:47 39.12460 117.36105 18 ft 3 kts 285°
2026-04-17 07:47 39.12462 117.36131 18 ft 0 kts 243°
2026-04-17 07:51 39.12461 117.36131 18 ft 0 kts 243°
2026-04-17 07:51 39.12457 117.36120 18 ft 2 kts 243°
2026-04-17 07:51 39.12447 117.36092 18 ft 4 kts 244°
2026-04-17 07:51 39.12430 117.36047 18 ft 7 kts 244°
2026-04-17 07:52 39.12403 117.35973 16 ft 11 kts 245°
2026-04-17 07:52 39.12365 117.35872 15 ft 13 kts 243°
2026-04-17 07:52 39.12324 117.35764 15 ft 13 kts 244°
2026-04-17 07:52 39.12293 117.35648 15 ft 13 kts 258°
2026-04-17 07:53 39.12254 117.35535 15 ft 13 kts 244°
2026-04-17 07:53 39.12213 117.35422 15 ft 14 kts 244°
2026-04-17 07:53 39.12170 117.35308 15 ft 13 kts 244°
2026-04-17 07:53 39.12130 117.35202 17 ft 12 kts 244°
2026-04-17 07:54 39.12097 117.35113 18 ft 8 kts 255°
2026-04-17 07:54 39.12134 117.35056 18 ft 9 kts 333°
2026-04-17 07:54 39.12208 117.35010 18 ft 14 kts 334°
2026-04-17 07:54 39.12314 117.34945 19 ft 19 kts 334°
2026-04-17 07:55 39.12443 117.34866 19 ft 20 kts 334°
2026-04-17 07:55 39.12576 117.34785 18 ft 20 kts 334°
2026-04-17 07:55 39.12704 117.34707 17 ft 20 kts 333°
2026-04-17 07:55 39.12835 117.34626 15 ft 21 kts 333°
2026-04-17 07:56 39.12966 117.34546 15 ft 20 kts 334°
2026-04-17 07:56 39.13092 117.34468 17 ft 19 kts 334°
2026-04-17 07:56 39.13209 117.34396 18 ft 18 kts 334°
2026-04-17 07:56 39.13334 117.34320 18 ft 21 kts 334°
2026-04-17 07:57 39.13472 117.34235 18 ft 23 kts 334°
2026-04-17 07:57 39.13621 117.34143 19 ft 24 kts 334°
2026-04-17 07:57 39.13767 117.34051 21 ft 22 kts 333°
2026-04-17 07:57 39.13904 117.33970 21 ft 21 kts 333°
2026-04-17 07:58 39.14027 117.33894 21 ft 14 kts 334°
2026-04-17 07:58 39.14101 117.33851 21 ft 7 kts 335°
2026-04-17 07:58 39.14116 117.33799 21 ft 3 kts 244°
2026-04-17 07:58 39.14103 117.33766 21 ft 4 kts 244°
2026-04-17 07:59 39.14083 117.33713 21 ft 8 kts 244°
2026-04-17 07:59 39.14046 117.33687 21 ft 5 kts 198°
2026-04-17 07:59 39.14018 117.33652 21 ft 5 kts 209°
2026-04-17 07:59 39.13979 117.33669 21 ft 6 kts 150°
2026-04-17 08:00 39.13968 117.33675 21 ft 0 kts 153°
2026-04-17 08:01 39.13736 117.33819 21 ft 75 kts 154°
2026-04-17 08:01 39.13046 117.34246 17 ft 140 kts 155°
2026-04-17 08:01 39.12050 117.34856 255 ft 167 kts 156°
2026-04-17 08:02 39.10993 117.35480 804 ft 172 kts 156°
2026-04-17 08:02 39.09915 117.36150 1478 ft 174 kts 155°
2026-04-17 08:02 39.08804 117.36859 1922 ft 187 kts 156°
2026-04-17 08:02 39.07581 117.37629 2329 ft 203 kts 156°
2026-04-17 08:03 39.06299 117.38431 2957 ft 206 kts 156°
2026-04-17 08:03 39.05011 117.39232 3634 ft 206 kts 157°
2026-04-17 08:03 39.03709 117.40031 4189 ft 214 kts 156°
2026-04-17 08:03 39.02307 117.40884 4539 ft 236 kts 156°
2026-04-17 08:04 39.00751 117.41832 4991 ft 255 kts 156°
2026-04-17 08:04 38.99097 117.42845 5463 ft 273 kts 154°
2026-04-17 08:04 38.97541 117.44299 6037 ft 288 kts 127°
2026-04-17 08:04 38.96792 117.46626 6851 ft 289 kts 92°
2026-04-17 08:05 38.97002 117.49169 7729 ft 287 kts 76°
2026-04-17 08:05 38.97400 117.51667 8478 ft 292 kts 76°
2026-04-17 08:05 38.97769 117.54223 9325 ft 295 kts 77°
2026-04-17 08:05 38.98114 117.56821 10143 ft 297 kts 77°
2026-04-17 08:06 38.98448 117.59473 10721 ft 307 kts 78°
2026-04-17 08:06 38.98792 117.62246 11138 ft 325 kts 78°
2026-04-17 08:06 38.99146 117.65155 11606 ft 337 kts 79°
2026-04-17 08:06 38.99509 117.68188 12254 ft 342 kts 78°
2026-04-17 08:07 38.99955 117.71158 12594 ft 342 kts 74°
2026-04-17 08:07 39.00566 117.74121 12686 ft 341 kts 71°
2026-04-17 08:07 39.01207 117.77013 12683 ft 340 kts 71°
2026-04-17 08:07 39.01868 117.79965 12725 ft 340 kts 71°
2026-04-17 08:08 39.02516 117.82874 12699 ft 340 kts 71°
2026-04-17 08:08 39.03164 117.85795 12684 ft 340 kts 71°
2026-04-17 08:08 39.03809 117.88724 12719 ft 341 kts 71°
2026-04-17 08:08 39.04458 117.91666 12715 ft 340 kts 71°
2026-04-17 08:09 39.05097 117.94580 12717 ft 340 kts 71°
2026-04-17 08:09 39.05741 117.97515 12714 ft 340 kts 71°
2026-04-17 08:09 39.06372 118.00407 12682 ft 340 kts 72°
2026-04-17 08:09 39.06749 118.03438 12710 ft 344 kts 84°
2026-04-17 08:10 39.06629 118.06512 12693 ft 347 kts 96°
2026-04-17 08:10 39.06178 118.09602 12804 ft 352 kts 99°
2026-04-17 08:10 39.05666 118.12680 13385 ft 357 kts 99°
2026-04-17 08:10 39.05145 118.15794 14170 ft 357 kts 99°
2026-04-17 08:11 39.04627 118.18948 14891 ft 360 kts 99°
2026-04-17 08:11 39.04117 118.22107 15402 ft 368 kts 98°
2026-04-17 08:11 39.03597 118.25356 15992 ft 374 kts 99°
2026-04-17 08:11 39.03077 118.28604 16625 ft 377 kts 98°
2026-04-17 08:12 39.02544 118.31927 17244 ft 382 kts 98°
2026-04-17 08:12 39.02006 118.35278 17827 ft 386 kts 98°
2026-04-17 08:12 39.01465 118.38644 18382 ft 390 kts 98°
2026-04-17 08:12 39.00919 118.42038 18954 ft 393 kts 98°
2026-04-17 08:13 39.00360 118.45498 19530 ft 396 kts 98°
2026-04-17 08:13 38.99799 118.48969 20069 ft 400 kts 98°
2026-04-17 08:13 38.99232 118.52489 20627 ft 403 kts 98°
2026-04-17 08:14 38.98095 118.59545 21672 ft 411 kts 98°
2026-04-17 08:14 38.97509 118.63163 22217 ft 414 kts 98°
2026-04-17 08:14 38.96921 118.66794 22745 ft 417 kts 99°
2026-04-17 08:14 38.96326 118.70456 23241 ft 421 kts 99°
2026-04-17 08:15 38.95730 118.74103 23733 ft 424 kts 99°
2026-04-17 08:15 38.95123 118.77805 24283 ft 425 kts 99°
2026-04-17 08:15 38.94513 118.81517 24941 ft 423 kts 99°
2026-04-17 08:15 38.93911 118.85156 25564 ft 422 kts 99°
2026-04-17 08:16 38.93308 118.88824 26162 ft 421 kts 99°
2026-04-17 08:16 38.92698 118.92511 26754 ft 421 kts 99°
2026-04-17 08:16 38.92096 118.96148 27303 ft 420 kts 99°
2026-04-17 08:16 38.91486 118.99827 27792 ft 421 kts 99°
2026-04-17 08:17 38.90879 119.03467 28207 ft 423 kts 99°
2026-04-17 08:17 38.90257 119.07190 28555 ft 427 kts 100°
2026-04-17 08:17 38.89634 119.10911 28908 ft 430 kts 100°
2026-04-17 08:18 38.88342 119.18440 29036 ft 434 kts 100°
2026-04-17 08:18 38.87060 119.25967 29006 ft 432 kts 100°
2026-04-17 08:19 38.85791 119.33446 29016 ft 432 kts 99°
2026-04-17 08:19 38.84515 119.40974 29025 ft 434 kts 100°
2026-04-17 08:20 38.83225 119.48531 29023 ft 432 kts 100°
2026-04-17 08:20 38.81952 119.55982 29020 ft 432 kts 100°
2026-04-17 08:21 38.80663 119.63494 29017 ft 433 kts 100°
2026-04-17 08:21 38.79365 119.71030 29023 ft 432 kts 101°
2026-04-17 08:22 38.78073 119.78498 29032 ft 432 kts 101°
2026-04-17 08:22 38.76780 119.86029 29025 ft 433 kts 100°
2026-04-17 08:23 38.75545 119.93578 29025 ft 432 kts 100°
2026-04-17 08:23 38.74295 120.01093 29031 ft 432 kts 100°
2026-04-17 08:24 38.73040 120.08547 29034 ft 433 kts 100°
2026-04-17 08:24 38.71524 120.16019 29011 ft 435 kts 116°
2026-04-17 08:24 38.69829 120.19190 29010 ft 433 kts 136°
2026-04-17 08:25 38.67481 120.21507 29030 ft 428 kts 154°
2026-04-17 08:25 38.62360 120.25365 29010 ft 434 kts 135°
2026-04-17 08:25 38.60598 120.28491 29020 ft 434 kts 114°
2026-04-17 08:26 38.59686 120.32127 29047 ft 432 kts 100°
2026-04-17 08:26 38.58594 120.39664 29029 ft 435 kts 98°
2026-04-17 08:27 38.57429 120.47236 29038 ft 436 kts 99°
2026-04-17 08:27 38.56184 120.54791 29043 ft 436 kts 100°
2026-04-17 08:28 38.54959 120.62324 29038 ft 436 kts 99°
2026-04-17 08:28 38.53736 120.69898 29029 ft 437 kts 100°
2026-04-17 08:29 38.52508 120.77465 29033 ft 436 kts 100°
2026-04-17 08:29 38.51272 120.85036 29035 ft 436 kts 100°
2026-04-17 08:30 38.50030 120.92601 29051 ft 437 kts 101°
2026-04-17 08:30 38.48777 121.00181 29033 ft 437 kts 101°
2026-04-17 08:31 38.47524 121.07740 29053 ft 438 kts 101°
2026-04-17 08:31 38.46260 121.15351 29046 ft 438 kts 101°
2026-04-17 08:32 38.45026 121.22935 29041 ft 437 kts 100°
2026-04-17 08:32 38.43810 121.30482 29051 ft 438 kts 100°
2026-04-17 08:33 38.42579 121.38094 29060 ft 438 kts 100°
2026-04-17 08:33 38.41349 121.45662 29058 ft 438 kts 100°
2026-04-17 08:34 38.40103 121.53215 29063 ft 437 kts 101°
2026-04-17 08:34 38.38836 121.60812 29071 ft 438 kts 101°
2026-04-17 08:35 38.37574 121.68358 29063 ft 438 kts 101°
2026-04-17 08:35 38.36300 121.75959 29065 ft 439 kts 102°
2026-04-17 08:36 38.35028 121.83501 29063 ft 439 kts 102°
2026-04-17 08:36 38.33717 121.91242 29067 ft 459 kts 102°
2026-04-17 08:36 38.33035 121.95252 29076 ft 470 kts 102°
2026-04-17 08:37 38.32334 121.99370 29066 ft 480 kts 102°
2026-04-17 08:37 38.30888 122.07812 29071 ft 499 kts 102°
2026-04-17 08:38 38.29396 122.16492 29074 ft 505 kts 102°
2026-04-17 08:38 38.27905 122.25185 29066 ft 505 kts 101°
2026-04-17 08:39 38.26642 122.33900 29071 ft 504 kts 99°
2026-04-17 08:39 38.25097 122.42610 29079 ft 505 kts 111°
2026-04-17 08:39 38.23582 122.46576 29060 ft 502 kts 123°
2026-04-17 08:40 38.21493 122.50148 29069 ft 499 kts 134°
2026-04-17 08:40 38.16613 122.56361 29060 ft 498 kts 139°
2026-04-17 08:41 38.11706 122.62502 29065 ft 499 kts 137°
2026-04-17 08:41 38.06836 122.68796 29067 ft 499 kts 137°
2026-04-17 08:42 38.02035 122.75075 29076 ft 498 kts 137°
2026-04-17 08:42 37.97197 122.81369 29069 ft 497 kts 138°
2026-04-17 08:43 37.92370 122.87618 29073 ft 497 kts 138°
2026-04-17 08:43 37.87550 122.93829 29069 ft 497 kts 138°
2026-04-17 08:44 37.82697 123.00047 29070 ft 497 kts 138°
2026-04-17 08:44 37.77842 123.06273 29067 ft 497 kts 138°
2026-04-17 08:45 37.73000 123.12488 29074 ft 497 kts 138°
2026-04-17 08:45 37.68164 123.18684 29071 ft 497 kts 138°
2026-04-17 08:46 37.63315 123.24886 29075 ft 497 kts 138°
2026-04-17 08:46 37.58469 123.31102 29074 ft 498 kts 137°
2026-04-17 08:47 37.54008 123.37758 29076 ft 502 kts 130°
2026-04-17 08:47 37.49824 123.44795 29079 ft 502 kts 130°
2026-04-17 08:48 37.45661 123.51811 29078 ft 502 kts 130°
2026-04-17 08:48 37.41473 123.58828 29082 ft 502 kts 130°
2026-04-17 08:49 37.37271 123.65842 29082 ft 502 kts 130°
2026-04-17 08:49 37.33105 123.72814 29088 ft 501 kts 131°
2026-04-17 08:50 37.28902 123.79814 29085 ft 501 kts 131°
2026-04-17 08:50 37.24724 123.86743 29088 ft 502 kts 131°
2026-04-17 08:51 37.20517 123.93704 29090 ft 501 kts 131°
2026-04-17 08:51 37.18584 123.97385 29076 ft 506 kts 120°
2026-04-17 08:51 37.17317 124.01453 29083 ft 510 kts 106°
2026-04-17 08:51 37.16783 124.05831 29085 ft 512 kts 92°
2026-04-17 08:52 37.16875 124.10317 29092 ft 512 kts 86°
2026-04-17 08:52 37.17367 124.19165 29090 ft 513 kts 86°
2026-04-17 08:53 37.17725 124.28097 29089 ft 514 kts 88°
2026-04-17 08:53 37.17928 124.37022 29085 ft 511 kts 88°
2026-04-17 08:54 37.18133 124.45884 29087 ft 508 kts 88°
2026-04-17 08:54 37.18342 124.54671 29029 ft 508 kts 88°
2026-04-17 08:54 37.18442 124.59090 28542 ft 502 kts 89°
2026-04-17 08:55 37.18539 124.63399 28131 ft 494 kts 89°
2026-04-17 08:55 37.18631 124.67691 27715 ft 487 kts 89°
2026-04-17 08:55 37.18718 124.71903 27306 ft 488 kts 89°
2026-04-17 08:55 37.18805 124.76116 26897 ft 488 kts 89°
2026-04-17 08:56 37.18890 124.80350 26489 ft 488 kts 89°
2026-04-17 08:56 37.18977 124.84634 26067 ft 488 kts 89°
2026-04-17 08:56 37.19065 124.88854 25686 ft 488 kts 89°
2026-04-17 08:56 37.19150 124.93064 25602 ft 489 kts 89°
2026-04-17 08:57 37.19234 124.97314 25566 ft 490 kts 89°
2026-04-17 08:57 37.19317 125.01548 25343 ft 485 kts 89°
2026-04-17 08:57 37.19394 125.05753 24922 ft 478 kts 89°
2026-04-17 08:57 37.19469 125.09891 24485 ft 472 kts 89°
2026-04-17 08:58 37.19541 125.13962 24057 ft 465 kts 89°
2026-04-17 08:58 37.19611 125.17932 23651 ft 459 kts 89°
2026-04-17 08:58 37.19678 125.21903 23257 ft 452 kts 89°
2026-04-17 08:58 37.19743 125.25805 22872 ft 446 kts 89°
2026-04-17 08:59 37.19804 125.29652 22502 ft 440 kts 89°
2026-04-17 08:59 37.19865 125.33473 22131 ft 434 kts 89°
2026-04-17 08:59 37.19923 125.37208 21765 ft 428 kts 89°
2026-04-17 08:59 37.19978 125.40916 21348 ft 425 kts 89°
2026-04-17 09:00 37.20034 125.44611 20915 ft 421 kts 89°
2026-04-17 09:00 37.19920 125.48247 20491 ft 416 kts 98°
2026-04-17 09:00 37.19321 125.51756 20085 ft 410 kts 109°
2026-04-17 09:00 37.18401 125.55128 19661 ft 406 kts 111°
2026-04-17 09:01 37.17439 125.58379 19195 ft 404 kts 112°
2026-04-17 09:01 37.16457 125.61690 18448 ft 410 kts 111°
2026-04-17 09:01 37.15478 125.65041 17841 ft 410 kts 111°
2026-04-17 09:01 37.14508 125.68424 17352 ft 407 kts 111°
2026-04-17 09:02 37.13561 125.71727 16888 ft 403 kts 111°
2026-04-17 09:02 37.12638 125.74986 16415 ft 400 kts 110°
2026-04-17 09:02 37.11737 125.78248 15941 ft 397 kts 108°
2026-04-17 09:02 37.11069 125.81597 15468 ft 394 kts 101°
2026-04-17 09:03 37.10690 125.84963 14997 ft 391 kts 97°
2026-04-17 09:03 37.10408 125.88319 14531 ft 388 kts 96°
2026-04-17 09:03 37.10138 125.91653 14089 ft 384 kts 96°
2026-04-17 09:03 37.09863 125.94955 13619 ft 381 kts 96°
2026-04-17 09:04 37.09578 125.98254 13146 ft 379 kts 96°
2026-04-17 09:04 37.09329 126.01527 12684 ft 375 kts 93°
2026-04-17 09:04 37.09278 126.04733 12212 ft 373 kts 89°
2026-04-17 09:04 37.09309 126.07980 11871 ft 366 kts 89°
2026-04-17 09:05 37.09350 126.11086 11806 ft 353 kts 88°
2026-04-17 09:05 37.09388 126.14094 11820 ft 337 kts 89°
2026-04-17 09:05 37.09419 126.16944 11808 ft 322 kts 89°
2026-04-17 09:05 37.09446 126.19730 11825 ft 319 kts 89°
2026-04-17 09:06 37.09472 126.22501 11825 ft 320 kts 89°
2026-04-17 09:06 37.09660 126.25255 11818 ft 319 kts 77°
2026-04-17 09:06 37.10274 126.27919 11795 ft 318 kts 68°
2026-04-17 09:06 37.11053 126.30514 11800 ft 318 kts 67°
2026-04-17 09:07 37.11855 126.33089 11816 ft 318 kts 67°
2026-04-17 09:07 37.12651 126.35680 11810 ft 318 kts 67°
2026-04-17 09:07 37.13427 126.38243 11827 ft 318 kts 68°
2026-04-17 09:07 37.14208 126.40852 11783 ft 317 kts 68°
2026-04-17 09:08 37.14973 126.43433 11787 ft 318 kts 68°
2026-04-17 09:08 37.15737 126.46014 11768 ft 315 kts 68°
2026-04-17 09:08 37.16488 126.48550 11533 ft 309 kts 68°
2026-04-17 09:08 37.17252 126.51132 10828 ft 316 kts 68°
2026-04-17 09:09 37.18025 126.53698 10104 ft 316 kts 64°
2026-04-17 09:09 37.19101 126.56068 9261 ft 315 kts 53°
2026-04-17 09:09 37.20364 126.58295 8384 ft 315 kts 51°
2026-04-17 09:09 37.21649 126.60500 7511 ft 314 kts 51°
2026-04-17 09:10 37.24409 126.64582 5719 ft 304 kts 27°
2026-04-17 09:10 37.26372 126.65266 4840 ft 295 kts 356°
2026-04-17 09:10 37.28251 126.64545 4237 ft 282 kts 323°
2026-04-17 09:11 37.29494 126.62741 3939 ft 271 kts 300°
2026-04-17 09:11 37.30454 126.60793 3863 ft 250 kts 304°
2026-04-17 09:11 37.31539 126.59158 3807 ft 236 kts 315°
2026-04-17 09:11 37.32786 126.57850 3567 ft 232 kts 322°
2026-04-17 09:12 37.34106 126.56698 3317 ft 230 kts 324°
2026-04-17 09:12 37.35433 126.55561 2754 ft 235 kts 323°
2026-04-17 09:12 37.36765 126.54390 2231 ft 232 kts 322°
2026-04-17 09:12 37.38048 126.53245 1956 ft 219 kts 322°
2026-04-17 09:13 37.39263 126.52157 1528 ft 207 kts 322°
2026-04-17 09:13 37.40396 126.51144 1290 ft 194 kts 322°
2026-04-17 09:13 37.41459 126.50198 1081 ft 180 kts 322°
2026-04-17 09:13 37.42437 126.49326 843 ft 166 kts 322°
2026-04-17 09:14 37.43341 126.48520 598 ft 153 kts 322°
2026-04-17 09:14 37.44184 126.47784 358 ft 140 kts 320°
2026-04-17 09:14 37.44946 126.47086 189 ft 135 kts 321°
2026-04-17 09:14 37.45713 126.46404 73 ft 135 kts 320°
2026-04-17 09:15 37.46426 126.45759 29 ft 108 kts 324°
2026-04-17 09:15 37.46907 126.45337 29 ft 60 kts 327°
2026-04-17 09:15 37.47227 126.45042 29 ft 54 kts 323°
2026-04-17 09:15 37.47435 126.44785 29 ft 32 kts 297°
2026-04-17 09:16 37.47465 126.44638 29 ft 10 kts 228°
2026-04-17 09:16 37.47394 126.44612 29 ft 11 kts 187°
2026-04-17 09:16 37.47357 126.44567 29 ft 3 kts 235°
2026-04-17 09:16 37.47353 126.44561 29 ft 0 kts 233°
2026-04-17 09:18 37.47345 126.44549 29 ft 4 kts 233°
2026-04-17 09:18 37.47310 126.44482 29 ft 13 kts 237°
2026-04-17 09:18 37.47248 126.44374 29 ft 15 kts 235°
2026-04-17 09:18 37.47185 126.44261 29 ft 15 kts 235°
2026-04-17 09:19 37.47122 126.44150 29 ft 15 kts 234°
2026-04-17 09:19 37.47061 126.44043 29 ft 11 kts 235°
2026-04-17 09:19 37.47007 126.43998 29 ft 10 kts 173°
2026-04-17 09:19 37.46951 126.44054 29 ft 11 kts 134°
2026-04-17 09:20 37.46894 126.44129 29 ft 12 kts 134°
2026-04-17 09:20 37.46833 126.44207 29 ft 12 kts 134°
2026-04-17 09:20 37.46780 126.44267 29 ft 6 kts 154°
2026-04-17 09:20 37.46746 126.44241 29 ft 5 kts 239°
2026-04-17 09:21 37.46726 126.44200 29 ft 3 kts 238°
2026-04-17 09:21 37.46716 126.44180 29 ft 0 kts 238°
2026-04-17 09:21 37.46714 126.44177 29 ft 0 kts 238°